Preview of NWS' New Version of Forecast
This preview is not operational and should not be used for support decisions.

Regional Weather Roundup (RWR)

Issued by National Weather Service (NWS)

                            
000
ASUS45 KBOI 172110
RWRID 

IDAHO REGIONAL WEATHER ROUNDUP
NATIONAL WEATHER SERVICE BOISE ID
200 PM MST SUN FEB 17 2019

NOTE: "FAIR" INDICATES FEW OR NO CLOUDS BELOW 12000 FEET
WITH NO SIGNIFICANT WEATHER AND/OR OBSTRUCTIONS TO VISIBILITY

IDZ012-014-172200-
SOUTHWEST IDAHO

  
CITY           SKY/WX    TMP DP  RH WIND       PRES   REMARKS
BOISE          PTSUNNY   35  27  72 N8        29.92F WCI  29          
CALDWELL       CLOUDY    37  28  70 W10       29.95S WCI  30          
MOUNTAIN HOME  MOSUNNY   38  37  95 NW14      29.90F WCI  29          
$$

IDZ016-017-172200-
SOUTHCENTRAL IDAHO

  
CITY           SKY/WX    TMP DP  RH WIND       PRES   REMARKS
JEROME         FLURRIES  30  25  81 N13       29.86S WCI  20          
TWIN FALLS     LGT SNOW  27  25  92 W9        29.85S FOG     WCI  18  
$$

IDZ019>023-172200-
SOUTHEAST IDAHO

  
CITY           SKY/WX    TMP DP  RH WIND       PRES   REMARKS
IDAHO FALLS    MOSUNNY   26  19  74 NE8       29.87S WCI  18          
POCATELLO      PTSUNNY   31  22  69 NE13      29.85S WCI  21          
REXBURG        CLOUDY    29  20  69 NE5       29.85S WCI  24          
$$

IDZ006-010-011-018-031-032-172200-
CENTRAL IDAHO MOUNTAINS

  
CITY           SKY/WX    TMP DP  RH WIND       PRES   REMARKS
MCCALL         MOSUNNY   29  19  66 W6        29.80S WCI  23          
STANLEY          N/A     25  11  55 CALM      29.77S                  
SALMON         CLOUDY    32  17  54 CALM      29.88F                  
CHALLIS        PTSUNNY   29  13  51 NE3       29.83F                  
$$

IDZ002-004-006-007-026-172200-
NORTHERN IDAHO

  
CITY           SKY/WX    TMP DP  RH WIND       PRES   REMARKS
LEWISTON       CLOUDY    35  28  75 W9        30.05R WCI  28          
LOWELL           N/A     38  33  82 CALM      29.99F                  
COEUR D'ALENE  PTSUNNY   26  18  71 N23       30.06S WCI  11          
MULLAN PASS    LGT SNOW  12   7  80 VRB3      29.84S VSB 1            
$$